• In Österreich
  • Länderverzeichnis
  • Für 7 Tage
  • Wassertemperatur
  • Satellitenkarten
  • Wetterkarte
  • News
  • Widgets
  • user-avatar
    Anmelden

    Stündliche Wetter Sydney

    Heute, 20 August, Montag

    Zeit Temperatur Niederschläge Wind Luftdruck Luftfeuchtigkeit
    00:00 +6°C° 0 mm 9 m/S 762 mmHg 53%
    01:00 +6°C° 0 mm 9 m/S 762 mmHg 54%
    02:00 +6°C° 0,1 mm 9 m/S 762 mmHg 54%
    03:00 +5°C° 0,1 mm 9 m/S 763 mmHg 55%
    04:00 +5°C° 0 mm 10 m/S 762 mmHg 55%
    05:00 +5°C° 0,1 mm 9 m/S 762 mmHg 54%
    06:00 +5°C° 0,1 mm 9 m/S 763 mmHg 54%
    07:00 +5°C° 0,1 mm 9 m/S 763 mmHg 54%
    08:00 +7°C° 0 mm 9 m/S 764 mmHg 47%
    09:00 +10°C° 0 mm 8 m/S 764 mmHg 41%
    10:00 +11°C° 0 mm 7 m/S 764 mmHg 35%
    11:00 +12°C° 0 mm 7 m/S 764 mmHg 32%
    12:00 +15°C° 0 mm 6 m/S 763 mmHg 28%
    13:00 +16°C° 0 mm 6 m/S 763 mmHg 25%
    14:00 +16°C° 0 mm 5 m/S 763 mmHg 25%
    15:00 +16°C° 0 mm 5 m/S 763 mmHg 25%
    16:00 +15°C° 0 mm 5 m/S 762 mmHg 26%
    17:00 +13°C° 0 mm 4 m/S 763 mmHg 33%
    18:00 +11°C° 0 mm 3 m/S 763 mmHg 41%
    19:00 +9°C° 0 mm 2 m/S 763 mmHg 48%
    20:00 +8°C° 0 mm 3 m/S 763 mmHg 51%
    21:00 +8°C° 0 mm 3 m/S 763 mmHg 53%
    22:00 +7°C° 0 mm 3 m/S 763 mmHg 57%
    23:00 +6°C° 0 mm 4 m/S 763 mmHg 60%

    Morgen, 21 August, Dienstag

    Zeit Temperatur Niederschläge Wind Luftdruck Luftfeuchtigkeit
    00:00 +6°C° 0 mm 4 m/S 763 mmHg 62%
    01:00 +5°C° 0 mm 5 m/S 762 mmHg 65%
    02:00 +5°C° 0 mm 5 m/S 762 mmHg 66%
    03:00 +5°C° 0 mm 5 m/S 762 mmHg 67%
    04:00 +4°C° 0 mm 6 m/S 761 mmHg 69%
    05:00 +4°C° 0 mm 6 m/S 761 mmHg 69%
    06:00 +5°C° 0 mm 6 m/S 761 mmHg 68%
    07:00 +5°C° 0 mm 6 m/S 761 mmHg 68%
    08:00 +8°C° 0 mm 6 m/S 761 mmHg 59%
    09:00 +11°C° 0 mm 6 m/S 761 mmHg 50%
    10:00 +15°C° 0 mm 6 m/S 761 mmHg 41%
    11:00 +16°C° 0 mm 6 m/S 760 mmHg 39%
    12:00 +17°C° 0 mm 6 m/S 759 mmHg 37%
    13:00 +19°C° 0 mm 6 m/S 759 mmHg 35%
    14:00 +17°C° 0 mm 6 m/S 758 mmHg 37%
    15:00 +17°C° 0 mm 6 m/S 758 mmHg 39%
    16:00 +16°C° 0 mm 7 m/S 758 mmHg 41%
    17:00 +15°C° 0 mm 7 m/S 758 mmHg 46%
    18:00 +13°C° 0 mm 6 m/S 759 mmHg 51%
    19:00 +11°C° 0 mm 6 m/S 759 mmHg 56%
    20:00 +10°C° 0 mm 6 m/S 759 mmHg 60%
    21:00 +9°C° 0 mm 6 m/S 759 mmHg 63%
    22:00 +9°C° 0 mm 6 m/S 760 mmHg 66%
    23:00 +8°C° 0 mm 6 m/S 760 mmHg 67%

    übermorgen, 22 August, Mittwoch

    Zeit Temperatur Niederschläge Wind Luftdruck Luftfeuchtigkeit
    00:00 +8°C° 0 mm 6 m/S 759 mmHg 69%
    01:00 +8°C° 0 mm 6 m/S 759 mmHg 71%
    02:00 +8°C° 0 mm 6 m/S 759 mmHg 72%
    03:00 +7°C° 0 mm 6 m/S 759 mmHg 73%
    04:00 +7°C° 0 mm 6 m/S 759 mmHg 73%
    05:00 +7°C° 0 mm 6 m/S 759 mmHg 74%
    06:00 +7°C° 0 mm 5 m/S 760 mmHg 74%
    07:00 +7°C° 0 mm 5 m/S 760 mmHg 74%
    08:00 +9°C° 0 mm 5 m/S 760 mmHg 63%
    09:00 +13°C° 0 mm 5 m/S 761 mmHg 53%
    10:00 +15°C° 0 mm 5 m/S 761 mmHg 42%
    11:00 +16°C° 0 mm 5 m/S 760 mmHg 39%
    12:00 +18°C° 0 mm 4 m/S 760 mmHg 36%
    13:00 +19°C° 0 mm 4 m/S 760 mmHg 34%
    14:00 +18°C° 0 mm 4 m/S 760 mmHg 38%
    15:00 +17°C° 0 mm 4 m/S 760 mmHg 41%
    16:00 +15°C° 0 mm 4 m/S 760 mmHg 45%
    17:00 +14°C° 0 mm 3 m/S 761 mmHg 50%
    18:00 +13°C° 0 mm 3 m/S 761 mmHg 54%
    19:00 +12°C° 0 mm 3 m/S 762 mmHg 59%
    20:00 +11°C° 0 mm 3 m/S 762 mmHg 62%
    21:00 +11°C° 0 mm 3 m/S 763 mmHg 65%
    22:00 +10°C° 0 mm 3 m/S 763 mmHg 68%
    23:00 +9°C° 0 mm 3 m/S 763 mmHg 71%

    23 August, Donnerstag

    Zeit Temperatur Niederschläge Wind Luftdruck Luftfeuchtigkeit
    00:00 +9°C° 0 mm 3 m/S 763 mmHg 75%
    01:00 +8°C° 0 mm 3 m/S 763 mmHg 78%
    02:00 +7°C° 0 mm 3 m/S 763 mmHg 80%
    03:00 +7°C° 0 mm 3 m/S 763 mmHg 81%
    04:00 +7°C° 0 mm 3 m/S 763 mmHg 83%
    05:00 +7°C° 0 mm 2 m/S 764 mmHg 82%
    06:00 +7°C° 0 mm 2 m/S 764 mmHg 82%
    07:00 +7°C° 0 mm 2 m/S 764 mmHg 82%
    08:00 +10°C° 0,1 mm 2 m/S 765 mmHg 70%
    09:00 +14°C° 0,1 mm 2 m/S 765 mmHg 59%
    10:00 +17°C° 0,1 mm 2 m/S 765 mmHg 47%
    11:00 +18°C° 0 mm 2 m/S 764 mmHg 45%
    12:00 +18°C° 0 mm 2 m/S 764 mmHg 42%
    13:00 +19°C° 0 mm 2 m/S 764 mmHg 40%
    14:00 +18°C° 0 mm 3 m/S 764 mmHg 43%
    15:00 +18°C° 0 mm 3 m/S 764 mmHg 47%
    16:00 +17°C° 0 mm 3 m/S 764 mmHg 51%
    17:00 +14°C° 0 mm 3 m/S 764 mmHg 59%
    18:00 +13°C° 0 mm 3 m/S 765 mmHg 67%
    19:00 +11°C° 0 mm 3 m/S 765 mmHg 75%
    20:00 +12°C° 0 mm 2 m/S 766 mmHg 78%
    21:00 +10°C° 0 mm 2 m/S 766 mmHg 81%
    22:00 +9°C° 0 mm 2 m/S 766 mmHg 84%
    23:00 +9°C° 0 mm 2 m/S 766 mmHg 85%

    24 August, Freitag

    Zeit Temperatur Niederschläge Wind Luftdruck Luftfeuchtigkeit
    00:00 +9°C° 0 mm 2 m/S 766 mmHg 85%
    01:00 +9°C° 0 mm 2 m/S 766 mmHg 86%
    02:00 +10°C° 0,1 mm 1 m/S 766 mmHg 84%
    03:00 +11°C° 0,1 mm 1 m/S 766 mmHg 82%
    04:00 +11°C° 0,1 mm 1 m/S 765 mmHg 80%
    05:00 +11°C° 0,1 mm 1 m/S 766 mmHg 81%
    06:00 +11°C° 0,1 mm 1 m/S 766 mmHg 82%
    07:00 +11°C° 0,1 mm 1 m/S 767 mmHg 84%
    08:00 +13°C° 0,1 mm 2 m/S 767 mmHg 76%
    09:00 +15°C° 0,1 mm 2 m/S 767 mmHg 68%
    10:00 +16°C° 0,1 mm 3 m/S 767 mmHg 60%
    11:00 +17°C° 0,2 mm 3 m/S 766 mmHg 60%
    12:00 +17°C° 0,2 mm 4 m/S 766 mmHg 61%
    13:00 +17°C° 0,2 mm 4 m/S 765 mmHg 61%
    14:00 +15°C° 0,1 mm 4 m/S 765 mmHg 63%
    15:00 +15°C° 0,1 mm 4 m/S 765 mmHg 64%
    16:00 +14°C° 0,1 mm 4 m/S 765 mmHg 66%
    17:00 +13°C° 0 mm 4 m/S 766 mmHg 70%
    18:00 +12°C° 0 mm 4 m/S 766 mmHg 73%
    19:00 +11°C° 0 mm 4 m/S 767 mmHg 77%
    20:00 +11°C° 0 mm 4 m/S 767 mmHg 79%
    21:00 +11°C° 0 mm 4 m/S 767 mmHg 80%
    22:00 +11°C° 0 mm 4 m/S 767 mmHg 82%
    23:00 +10°C° 0 mm 4 m/S 767 mmHg 83%

    25 August, Samstag

    Zeit Temperatur Niederschläge Wind Luftdruck Luftfeuchtigkeit
    00:00 +10°C° 0 mm 3 m/S 767 mmHg 85%
    01:00 +10°C° 0 mm 3 m/S 767 mmHg 87%
    02:00 +10°C° 0 mm 3 m/S 767 mmHg 87%
    03:00 +10°C° 0 mm 3 m/S 766 mmHg 88%
    04:00 +9°C° 0 mm 3 m/S 766 mmHg 88%
    05:00 +10°C° 0 mm 3 m/S 767 mmHg 88%
    06:00 +10°C° 0 mm 4 m/S 767 mmHg 88%
    07:00 +10°C° 0 mm 4 m/S 767 mmHg 88%
    08:00 +11°C° 0,3 mm 4 m/S 767 mmHg 86%
    09:00 +12°C° 0,3 mm 5 m/S 767 mmHg 84%
    10:00 +13°C° 0,3 mm 5 m/S 767 mmHg 82%
    11:00 +13°C° 1,5 mm 5 m/S 766 mmHg 84%
    12:00 +13°C° 1,5 mm 6 m/S 766 mmHg 87%
    13:00 +13°C° 1,5 mm 6 m/S 765 mmHg 89%
    14:00 +13°C° 1,8 mm 6 m/S 765 mmHg 91%
    15:00 +13°C° 1,8 mm 5 m/S 765 mmHg 92%
    16:00 +12°C° 1,8 mm 5 m/S 765 mmHg 93%
    17:00 +12°C° 0,8 mm 5 m/S 765 mmHg 93%
    18:00 +12°C° 0,8 mm 5 m/S 765 mmHg 93%
    19:00 +13°C° 0,8 mm 6 m/S 765 mmHg 93%
    20:00 +13°C° 0,5 mm 6 m/S 765 mmHg 94%
    21:00 +13°C° 0,5 mm 6 m/S 765 mmHg 94%
    22:00 +13°C° 0,5 mm 6 m/S 765 mmHg 94%
    23:00 +13°C° 0,4 mm 6 m/S 765 mmHg 95%
    Mehr zeigen